This is the latest recevied weather packets stored in our database for station/object KL1SF-7. If no packets are shown the sender has not sent any weather packets the latest 10 day(s).
| Time | Temp. | Humidity | Pressure | Rain* | Wind** | Luminosity | Snow |
|---|---|---|---|---|---|---|---|
| 1777637622 | 8.89° C | 28% | 1016.3 hPa | 0 mm | - | - | - |
| 1777637014 | 8.33° C | 28% | 1015.6 hPa | 0 mm | - | - | - |
| 1777636416 | 7.78° C | 29% | 1015.5 hPa | 0 mm | - | - | - |
| 1777635805 | 7.78° C | 29% | 1015.5 hPa | 0 mm | - | - | - |
| 1777635221 | 7.22° C | 29% | 1015.4 hPa | 0 mm | - | - | - |
| 1777634622 | 7.22° C | 29% | 1015.4 hPa | 0 mm | - | - | - |
| 1777634012 | 7.22° C | 30% | 1015.4 hPa | 0 mm | - | - | - |
| 1777633428 | 7.22° C | 30% | 1015.3 hPa | 0 mm | - | - | - |
| 1777632808 | 7.22° C | 31% | 1015.7 hPa | 0 mm | - | - | - |
| 1777632217 | 6.11° C | 32% | 1015.7 hPa | 0 mm | - | - | - |
| 1777631614 | 5.56° C | 33% | 1015.4 hPa | 0 mm | - | - | - |
| 1777631014 | 4.44° C | 36% | 1015.9 hPa | 0 mm | - | - | - |
| 1777630404 | 3.89° C | 37% | 1015.9 hPa | 0 mm | - | - | - |
| 1777629817 | 3.89° C | 36% | 1015.8 hPa | 0 mm | - | - | - |
| 1777629220 | 4.44° C | 35% | 1015.6 hPa | 0 mm | - | - | - |
| 1777628608 | 4.44° C | 34% | 1015.6 hPa | 0 mm | - | - | - |
| 1777628025 | 5° C | 33% | 1015.2 hPa | 0 mm | - | - | - |
| 1777627405 | 5° C | 32% | 1015.1 hPa | 0 mm | - | - | - |
| 1777626814 | 5.56° C | 31% | 1015.1 hPa | 0 mm | - | - | - |
| 1777626226 | 5.56° C | 31% | 1015.2 hPa | 0 mm | - | - | - |
| 1777625607 | 5.56° C | 30% | 1015.3 hPa | 0 mm | - | - | - |
| 1777625015 | 5.56° C | 30% | 1015.3 hPa | 0 mm | - | - | - |
| 1777624428 | 5.56° C | 30% | 1015.4 hPa | 0 mm | - | - | - |
| 1777623812 | 5.56° C | 29% | 1015.5 hPa | 0 mm | - | - | - |
| 1777623220 | 5.56° C | 30% | 1015.5 hPa | 0 mm | - | - | - |
* Rain since midnight (hover to see other rain measurements)
** Current wind speed in m/s (hover to see current wind gust speed)